| time (UTC) | temp F | wind direction | speed MPH | gust MPH | rain 1hr in | rain 24hr in | rain mn in | humidity % | barometer mb |
| 20260509030012 | 51 | 222 | 2.0 | 5.0 | 0.00 | 0.00 | 0.00 | 100 | 1009.8 |
| 20260509024508 | 51 | 258 | 2.0 | 5.0 | 0.00 | 0.00 | 0.00 | 100 | 1009.9 |
| 20260509023004 | 51 | 269 | 2.0 | 6.0 | 0.00 | 0.00 | 0.00 | 100 | 1010.0 |
| 20260509021559 | 52 | 265 | 3.0 | 8.0 | 0.00 | 0.00 | 0.00 | 2 | 1010.0 |
| 20260509020059 | 52 | 292 | 2.0 | 8.0 | 0.00 | 0.00 | 0.00 | 14 | 1009.9 |
| 20260509014550 | 53 | 255 | 2.0 | 5.0 | 0.00 | 0.00 | 0.00 | 24 | 1009.9 |
| 20260509013051 | 52 | 210 | 1.0 | 4.0 | 0.00 | 0.00 | 0.00 | 31 | 1009.9 |
| 20260509011542 | 52 | 200 | 0.0 | 2.0 | 0.00 | 0.00 | 0.00 | 33 | 1009.6 |
| 20260509010040 | 52 | 207 | 0.0 | 2.0 | 0.00 | 0.00 | 0.00 | 31 | 1009.4 |
| 20260509004534 | 53 | 209 | 0.0 | 2.0 | 0.00 | 0.00 | 0.00 | 39 | 1009.3 |
| 20260509003028 | 53 | 240 | 0.0 | 2.0 | 0.00 | 0.00 | 0.00 | 39 | 1009.3 |
| 20260509001524 | 54 | 256 | 1.0 | 2.0 | 0.00 | 0.00 | 0.00 | 45 | 1009.3 |
| 20260509000019 | 54 | 263 | 0.0 | 2.0 | 0.00 | 0.00 | 0.00 | 47 | 1009.3 |
| 20260508234514 | 54 | 305 | 0.0 | 2.0 | 0.00 | 0.00 | 0.00 | 55 | 1009.3 |
| 20260508233010 | 55 | 306 | 0.0 | 2.0 | 0.00 | 0.00 | 0.00 | 56 | 1009.4 |
| 20260508231506 | 55 | 307 | 1.0 | 3.0 | 0.00 | 0.00 | 0.00 | 56 | 1009.5 |
| 20260508230001 | 55 | 340 | 1.0 | 3.0 | 0.00 | 0.00 | 0.00 | 56 | 1009.4 |
| 20260508224557 | 55 | 5 | 2.0 | 4.0 | 0.00 | 0.00 | 0.00 | 57 | 1009.6 |
| 20260508223053 | 55 | 14 | 1.0 | 5.0 | 0.00 | 0.00 | 0.00 | 57 | 1009.6 |
| 20260508221548 | 55 | 349 | 2.0 | 4.0 | 0.00 | 0.00 | 0.00 | 57 | 1009.6 |
| 20260508220045 | 55 | 18 | 3.0 | 8.0 | 0.00 | 0.00 | 0.00 | 57 | 1009.6 |
| 20260508214540 | 55 | 34 | 1.0 | 5.0 | 0.00 | 0.00 | 0.00 | 57 | 1009.6 |
| 20260508213040 | 56 | 71 | 2.0 | 8.0 | 0.00 | 0.00 | 0.00 | 57 | 1009.6 |
| 20260508211537 | 55 | 26 | 3.0 | 7.0 | 0.00 | 0.00 | 0.00 | 57 | 1009.7 |
| 20260508210027 | 56 | 90 | 3.0 | 9.0 | 0.00 | 0.00 | 0.00 | 57 | 1009.7 |
| 20260508204522 | 55 | 59 | 3.0 | 10.0 | 0.00 | 0.00 | 0.00 | 57 | 1009.8 |
| 20260508203018 | 56 | 48 | 4.0 | 13.0 | 0.00 | 0.00 | 0.00 | 57 | 1009.7 |
| 20260508201516 | 56 | 72 | 4.0 | 8.0 | 0.00 | 0.00 | 0.00 | 57 | 1009.8 |
| 20260508200012 | 56 | 47 | 4.0 | 8.0 | 0.00 | 0.00 | 0.00 | 57 | 1010.0 |
| 20260508194512 | 57 | 76 | 5.0 | 11.0 | 0.00 | 0.00 | 0.00 | 56 | 1010.0 |
| 20260508193151 | 56 | 88 | 6.0 | 12.0 | 0.00 | 0.00 | 0.00 | 57 | 1010.3 |
| 20260508191602 | 57 | 71 | 3.0 | 9.0 | 0.00 | 0.00 | 0.00 | 56 | 1010.3 |
| 20260508190054 | 57 | 69 | 6.0 | 11.0 | 0.00 | 0.00 | 0.00 | 56 | 1010.5 |
| 20260508184549 | 57 | 32 | 5.0 | 8.0 | 0.00 | 0.00 | 0.00 | 56 | 1010.7 |
| 20260508183101 | 56 | 348 | 4.0 | 10.0 | 0.00 | 0.00 | 0.00 | 56 | 1010.9 |
| 20260508181546 | 55 | 58 | 2.0 | 7.0 | 0.00 | 0.00 | 0.00 | 56 | 1011.0 |
| 20260508180036 | 55 | 38 | 3.0 | 8.0 | 0.00 | 0.00 | 0.00 | 56 | 1011.2 |
| 20260508174530 | 55 | 96 | 2.0 | 8.0 | 0.00 | 0.00 | 0.00 | 57 | 1011.3 |
| 20260508173025 | 56 | 92 | 4.0 | 9.0 | 0.00 | 0.00 | 0.00 | 55 | 1011.4 |
| 20260508171521 | 56 | 5 | 4.0 | 8.0 | 0.00 | 0.00 | 0.00 | 55 | 1011.4 |
| 20260508170017 | 55 | 198 | 0.0 | 5.0 | 0.00 | 0.00 | 0.00 | 56 | 1011.5 |
| 20260508164514 | 54 | 40 | 1.0 | 5.0 | 0.00 | 0.00 | 0.00 | 55 | 1011.9 |
| 20260508163013 | 53 | 69 | 1.0 | 5.0 | 0.00 | 0.00 | 0.00 | 55 | 1012.0 |
| 20260508161509 | 54 | 24 | 2.0 | 4.0 | 0.00 | 0.00 | 0.00 | 55 | 1012.0 |
| 20260508160100 | 53 | 166 | 3.0 | 8.0 | 0.00 | 0.00 | 0.00 | 50 | 1012.2 |
| 20260508154614 | 52 | 140 | 2.0 | 6.0 | 0.00 | 0.00 | 0.00 | 49 | 1012.4 |
| 20260508153051 | 51 | 19 | 2.0 | 5.0 | 0.00 | 0.00 | 0.00 | 50 | 1012.5 |
| 20260508151549 | 51 | 18 | 2.0 | 5.0 | 0.00 | 0.00 | 0.00 | 48 | 1012.4 |
| 20260508150041 | 50 | 248 | 1.0 | 3.0 | 0.00 | 0.00 | 0.00 | 44 | 1012.3 |
| 20260508144539 | 50 | 206 | 0.0 | 3.0 | 0.00 | 0.00 | 0.00 | 39 | 1012.5 |
| 20260508143033 | 49 | 247 | 0.0 | 2.0 | 0.00 | 0.00 | 0.00 | 38 | 1012.5 |
| 20260508141533 | 49 | 263 | 1.0 | 3.0 | 0.00 | 0.00 | 0.00 | 37 | 1012.6 |
| 20260508140024 | 48 | 271 | 1.0 | 3.0 | 0.00 | 0.00 | 0.00 | 31 | 1012.5 |
| 20260508134519 | 47 | 188 | 1.0 | 4.0 | 0.00 | 0.00 | 0.00 | 24 | 1012.6 |
| 20260508133019 | 46 | 161 | 0.0 | 3.0 | 0.00 | 0.00 | 0.00 | 24 | 1012.6 |
| 20260508131512 | 46 | 149 | 1.0 | 4.0 | 0.00 | 0.00 | 0.00 | 19 | 1012.6 |
| 20260508130011 | 45 | 140 | 0.0 | 6.0 | 0.00 | 0.00 | 0.00 | 18 | 1012.5 |
| 20260508124501 | 45 | 101 | 2.0 | 5.0 | 0.00 | 0.00 | 0.00 | 17 | 1012.5 |
| 20260508123058 | 46 | 77 | 0.0 | 5.0 | 0.00 | 0.00 | 0.00 | 21 | 1012.5 |
| 20260508121554 | 46 | 50 | 1.0 | 6.0 | 0.00 | 0.00 | 0.00 | 25 | 1012.4 |
| 20260508120050 | 47 | 5 | 1.0 | 5.0 | 0.00 | 0.00 | 0.00 | 30 | 1012.1 |
| 20260508114544 | 47 | 283 | 1.0 | 7.0 | 0.00 | 0.00 | 0.00 | 32 | 1011.7 |
| 20260508113041 | 47 | 302 | 1.0 | 6.0 | 0.00 | 0.00 | 0.00 | 31 | 1011.5 |
| 20260508111538 | 46 | 273 | 3.0 | 5.0 | 0.00 | 0.00 | 0.00 | 32 | 1011.4 |
| 20260508110033 | 45 | 296 | 2.0 | 5.0 | 0.00 | 0.00 | 0.00 | 29 | 1011.3 |
| 20260508104527 | 45 | 288 | 1.0 | 6.0 | 0.00 | 0.00 | 0.00 | 32 | 1011.3 |
| 20260508103027 | 45 | 281 | 0.0 | 4.0 | 0.00 | 0.00 | 0.00 | 34 | 1011.3 |
| 20260508101518 | 44 | 292 | 2.0 | 4.0 | 0.00 | 0.00 | 0.00 | 36 | 1011.2 |
| 20260508100014 | 44 | 290 | 2.0 | 6.0 | 0.00 | 0.00 | 0.00 | 38 | 1011.1 |
| 20260508094509 | 44 | 294 | 2.0 | 5.0 | 0.00 | 0.00 | 0.00 | 39 | 1011.3 |
| 20260508093009 | 44 | 286 | 1.0 | 6.0 | 0.00 | 0.00 | 0.00 | 40 | 1011.3 |
| 20260508091501 | 45 | 286 | 3.0 | 5.0 | 0.00 | 0.00 | 0.00 | 40 | 1011.2 |
| 20260508090114 | 44 | 279 | 3.0 | 8.0 | 0.00 | 0.00 | 0.00 | 34 | 1011.0 |
| 20260508084552 | 43 | 275 | 2.0 | 4.0 | 0.00 | 0.00 | 0.00 | 19 | 1011.1 |
| 20260508083048 | 42 | 256 | 1.0 | 4.0 | 0.00 | 0.00 | 0.00 | 10 | 1011.1 |
| 20260508081559 | 41 | 248 | 1.0 | 4.0 | 0.00 | 0.00 | 0.00 | 6 | 1011.1 |
| 20260508080040 | 41 | 230 | 1.0 | 3.0 | 0.00 | 0.00 | 0.00 | 3 | 1011.2 |
| 20260508074533 | 40 | 228 | 0.0 | 4.0 | 0.00 | 0.00 | 0.00 | 100 | 1011.3 |
| 20260508073029 | 40 | 227 | 0.0 | 0.0 | 0.00 | 0.00 | 0.00 | 100 | 1011.4 |
| 20260508071527 | 40 | 227 | 0.0 | 0.0 | 0.00 | 0.00 | 0.00 | 5 | 1011.5 |
| 20260508070021 | 41 | 227 | 1.0 | 2.0 | 0.00 | 0.00 | 0.00 | 7 | 1011.7 |
| 20260508064516 | 42 | 227 | 0.0 | 1.0 | 0.00 | 0.00 | 0.00 | 7 | 1011.7 |
| 20260508063012 | 42 | 228 | 1.0 | 2.0 | 0.00 | 0.00 | 0.00 | 11 | 1011.9 |
| 20260508061508 | 42 | 229 | 0.0 | 3.0 | 0.00 | 0.00 | 0.00 | 12 | 1012.0 |
| 20260508060004 | 42 | 279 | 0.0 | 2.0 | 0.00 | 0.00 | 0.00 | 21 | 1012.1 |
| 20260508054559 | 42 | 279 | 1.0 | 2.0 | 0.00 | 0.00 | 0.00 | 22 | 1012.2 |
| 20260508053059 | 42 | 281 | 0.0 | 2.0 | 0.00 | 0.00 | 0.00 | 27 | 1012.4 |
| 20260508051607 | 41 | 281 | 0.0 | 3.0 | 0.00 | 0.00 | 0.00 | 9 | 1012.3 |
| 20260508050046 | 39 | 284 | 0.0 | 2.0 | 0.00 | 0.00 | 0.00 | 100 | 1012.3 |
| 20260508044548 | 38 | 286 | 0.0 | 3.0 | 0.00 | 0.00 | 0.00 | 100 | 1012.2 |
| 20260508043037 | 39 | 319 | 0.0 | 0.0 | 0.00 | 0.00 | 0.00 | 100 | 1012.2 |
| 20260508041533 | 38 | 319 | 0.0 | 2.0 | 0.00 | 0.00 | 0.00 | 100 | 1012.2 |
| 20260508040028 | 38 | 355 | 0.0 | 2.0 | 0.00 | 0.00 | 0.00 | 100 | 1012.2 |
| 20260508034537 | 38 | 355 | 0.0 | 0.0 | 0.00 | 0.00 | 0.00 | 100 | 1012.3 |
| 20260508033020 | 39 | 355 | 0.0 | 0.0 | 0.00 | 0.00 | 0.00 | 100 | 1012.2 |
| 20260508031515 | 40 | 355 | 0.0 | 1.0 | 0.00 | 0.00 | 0.00 | 100 | 1012.3 |